カタログに戻る

STARLINK-37719

運用中通信VLEO
NORAD 100013·PAYLOAD·🇺🇸 United States

打ち上げ Jul 14, 2026 から Vandenberg Space Force Base

Loading…

次のパス (今後24時間)

TLE

最新Source: Space-Track

元期: Sep 14, 2026, 21:09 UTC

1 A0013U 26160N   26257.88136775  .00468732  00000-0  26363-2 0  9998
2 A0013  70.0019 210.9681 0003890 255.3564 104.7205 15.77778365 11108

AllMySatでSTARLINK-37719をリアルタイム追跡

Download on the App Store